Location: Observatory
(52.1446°N, 0.4624°W)
Time: 05:16:44
(UTC+00:00)

ISS - Pass Details

Date: 25 January 2019
Orbit: 403 x 411 km, 51.6° (Epoch: 17 February)

Event Time Altitude Azimuth Distance (km) Brightness Sun altitude
Rises 17:26:43 0° 195° (SSW) 2,322 0.6 -7.8°
Reaches altitude 10° 17:29:50 10° 162° (SSE) 1,470 -1.0 -8.3°
Maximum altitude 17:31:08 12° 139° (SE) 1,363 -1.4 -8.5°
Drops below altitude 10° 17:32:27 10° 115° (ESE) 1,476 -1.4 -8.7°
Enters shadow 17:33:10 - 105° (ESE) 1,619 -1.3 -8.8°
